Location: Pedholt
(56.0260°N, 10.2097°E)
Time: 18:19:58
(UTC+00:00)

Transit 2A Rocket - Pass Details

Date: 30 July 2021
Orbit: 586 x 917 km, 66.7° (Epoch: 26 September)

Event Time Altitude Azimuth Distance (km) Brightness Sun altitude
Rises 22:09:43 0° 315° (NW) 3,199 9.4 -14.0°
Reaches altitude 10° 22:12:03 10° 311° (NW) 2,322 8.4 -14.1°
Maximum altitude 22:17:17 56° 235° (SW) 973 5.4 -14.3°
Enters shadow 22:20:58 21° 164° (SSE) 1,806 6.3 -14.5°
Drops below altitude 10° 22:22:57 10° 158° (SSE) 2,511 - -14.5°
Sets 22:25:33 0° 155° (SSE) 3,481 - -14.6°
